Погода в Хилле

Ирак     32°28′20″N   44°25′23″E
темп.,
°C
ветер,
м/с
пор.,
м/с
влажн.,
%
обл.,
%
осадки,
мм/ч
давл.,
гПа
погр.,
м
20 июня, вс
вс2000:00+32сз45120 0.0 100357
03:00+31сз58150 0.0 1003113
06:00+30ссз714240 0.0 1005334
09:00+36ссз89170 0.0 1005860
12:00+41сз8980 0.0 10051727
15:00+42сз8960 0.0 10041979
18:00+41ссз7960 0.0 10031622
21:00+35ссз5890 0.0 1004121
21 июня, пн
пн2100:00+33сз510110 0.0 1004148
03:00+31ссз611130 0.0 1003151
06:00+31ссз49140 0.0 1004164
09:00+38сз6880 0.0 1005744
12:00+44ссз7860 0.0 10041613
15:00+45ссз7760 0.0 10022499
18:00+44ссз6660 0.0 10011257
21:00+38сз58100 0.0 1002123
22 июня, вт
вт2200:00+36ссз56110 0.0 100287
03:00+34с45130 0.0 100155
06:00+33ссз33110 0.0 100349
09:00+40зсз4490 0.0 1003542
12:00+45зсз5570 0.0 10031721
15:00+46з7660 0.0 10022090
18:00+44зсз7760 0.0 10021382
21:00+39сз59100 0.0 1003163
23 июня, ср
ср2300:00+35ссз511140 0.0 1004184
03:00+33ссз510200 0.0 1004178
06:00+32ссз511180 0.0 1006242
09:00+40ссз78110 0.0 1006892
12:00+44ссз8960 0.0 10052217
15:00+45сз9960 0.0 10042601
18:00+42ссз9990 0.0 10041521
21:00+37ссз611120 0.0 1005265
24 июня, чт
чт2400:00+34ссз511150 0.0 1005178
03:00+33ссз48160 0.0 1005127
06:00+32ссз511170 0.0 1005218
09:00+40ссз79100 0.0 10061089
12:00+44ссз81080 0.0 10051891
15:00+46сз101160 0.0 10032313
18:00+44ссз81060 0.0 10021337
21:00+38сз612100 0.0 1003207